Starlink 31636

operational
NORAD ID: 59747 Int'l Des: 2024-090 Owner: SPXS Country: US Constellation: starlink
LEOCIRCULAR

关于 Starlink 31636

正在加载描述...

实时位置

正在加载3D地球...

即将过境

高度历史

Altitude vs Time

uPlot chart will show altitude changes over time

两行轨道根数

1 59747U 24090T 25354.18962083 .00000557 00000-0 29782-4 0 9992
2 59747 43.0004 272.3001 0001663 265.3912 94.6750 15.27572022 91288
Epoch: Dec 20, 2025 • Age: 24 hours

当前状态

高度 483.2 km
速度 7.63 km/s
星下点 21.42°N, 99.15°W
发射日期 May 13, 2024
运行时间 1.6 years
类型 internet

技术详情

分类 Payload
质量 730.00 kg
干质量 700.00 kg
总质量 730.00 kg
长度 0.30 m
直径 4.10 m
跨度 29.00 m
形状 Box + pan
制造商 SPXS
平台类型 Starlink V2M
阶段状态 In Orbit
所有者/国家 SPXS/US

大型星座

Loading constellations...